| time (UTC) | temp F | wind direction | speed MPH | gust MPH | rain 1hr in | rain 24hr in | rain mn in | humidity % | barometer mb |
| 20260904162003 | 58 | 217 | 1.0 | 4.0 | 0.00 | 0.10 | 0.06 | 81 | 997.3 |
| 20260904161504 | 58 | 229 | 1.0 | 4.0 | 0.00 | 0.10 | 0.06 | 80 | 997.4 |
| 20260904161003 | 58 | 244 | 2.0 | 5.0 | 0.00 | 0.10 | 0.06 | 80 | 997.4 |
| 20260904160713 | 58 | 240 | 2.0 | 6.0 | 0.00 | 0.11 | 0.06 | 80 | 997.4 |
| 20260904160003 | 58 | 210 | 3.0 | 8.0 | 0.00 | 0.11 | 0.06 | 80 | 997.5 |
| 20260904155503 | 58 | 204 | 3.0 | 8.0 | 0.00 | 0.11 | 0.06 | 81 | 997.4 |
| 20260904155003 | 58 | 225 | 1.0 | 5.0 | 0.00 | 0.12 | 0.06 | 81 | 997.5 |
| 20260904154713 | 58 | 218 | 1.0 | 7.0 | 0.00 | 0.12 | 0.06 | 81 | 997.4 |
| 20260904154003 | 58 | 216 | 2.0 | 7.0 | 0.00 | 0.12 | 0.06 | 82 | 997.6 |
| 20260904153715 | 58 | 196 | 3.0 | 7.0 | 0.00 | 0.13 | 0.06 | 80 | 997.4 |
| 20260904153003 | 58 | 190 | 3.0 | 8.0 | 0.00 | 0.13 | 0.06 | 82 | 997.5 |
| 20260904152503 | 58 | 214 | 2.0 | 8.0 | 0.00 | 0.13 | 0.06 | 82 | 997.4 |
| 20260904152003 | 58 | 223 | 3.0 | 6.0 | 0.00 | 0.13 | 0.06 | 83 | 997.5 |
| 20260904151503 | 58 | 210 | 3.0 | 6.0 | 0.00 | 0.13 | 0.06 | 83 | 997.3 |
| 20260904151214 | 58 | 201 | 2.0 | 6.0 | 0.00 | 0.13 | 0.06 | 83 | 997.7 |
| 20260904150503 | 57 | 206 | 2.0 | 5.0 | 0.00 | 0.13 | 0.06 | 85 | 997.8 |
| 20260904150213 | 57 | 217 | 2.0 | 5.0 | 0.00 | 0.13 | 0.06 | 85 | 997.7 |
| 20260904145503 | 57 | 220 | 3.0 | 5.0 | 0.00 | 0.13 | 0.06 | 85 | 997.8 |
| 20260904145213 | 57 | 206 | 3.0 | 5.0 | 0.00 | 0.13 | 0.06 | 85 | 997.9 |
| 20260904144503 | 57 | 204 | 2.0 | 7.0 | 0.00 | 0.13 | 0.06 | 85 | 998.1 |
| 20260904144003 | 57 | 221 | 3.0 | 8.0 | 0.00 | 0.13 | 0.06 | 85 | 997.9 |
| 20260904143714 | 57 | 220 | 3.0 | 8.0 | 0.00 | 0.13 | 0.06 | 84 | 998.2 |
| 20260904143213 | 57 | 221 | 2.0 | 6.0 | 0.00 | 0.13 | 0.06 | 84 | 998.1 |
| 20260904142503 | 57 | 232 | 1.0 | 4.0 | 0.00 | 0.13 | 0.06 | 85 | 998.1 |
| 20260904142004 | 57 | 229 | 1.0 | 4.0 | 0.00 | 0.13 | 0.06 | 85 | 998.3 |
| 20260904141504 | 57 | 201 | 2.0 | 6.0 | 0.00 | 0.13 | 0.06 | 84 | 998.1 |
| 20260904141003 | 57 | 196 | 2.0 | 6.0 | 0.00 | 0.13 | 0.06 | 84 | 998.2 |
| 20260904140503 | 57 | 224 | 1.0 | 4.0 | 0.00 | 0.13 | 0.06 | 85 | 998.3 |
| 20260904140004 | 57 | 220 | 2.0 | 4.0 | 0.00 | 0.13 | 0.06 | 84 | 998.3 |
| 20260904135503 | 57 | 219 | 2.0 | 4.0 | 0.00 | 0.13 | 0.06 | 84 | 998.4 |
| 20260904135003 | 57 | 222 | 2.0 | 4.0 | 0.00 | 0.13 | 0.06 | 84 | 998.3 |
| 20260904134503 | 56 | 213 | 2.0 | 6.0 | 0.00 | 0.13 | 0.06 | 85 | 998.4 |
| 20260904134004 | 57 | 219 | 2.0 | 6.0 | 0.00 | 0.13 | 0.06 | 85 | 998.5 |
| 20260904133714 | 57 | 232 | 2.0 | 6.0 | 0.00 | 0.13 | 0.06 | 85 | 998.5 |
| 20260904133213 | 56 | 206 | 2.0 | 6.0 | 0.00 | 0.13 | 0.06 | 84 | 998.6 |
| 20260904132503 | 56 | 207 | 2.0 | 6.0 | 0.00 | 0.13 | 0.06 | 83 | 998.5 |
| 20260904132213 | 56 | 207 | 2.0 | 5.0 | 0.00 | 0.13 | 0.06 | 82 | 998.7 |
| 20260904131503 | 57 | 202 | 2.0 | 7.0 | 0.00 | 0.13 | 0.06 | 81 | 998.7 |
| 20260904131213 | 57 | 208 | 3.0 | 7.0 | 0.00 | 0.13 | 0.06 | 80 | 998.6 |
| 20260904130714 | 57 | 195 | 2.0 | 7.0 | 0.00 | 0.13 | 0.06 | 79 | 998.7 |
| 20260904130003 | 57 | 211 | 1.0 | 5.0 | 0.00 | 0.13 | 0.06 | 79 | 998.7 |
| 20260904125503 | 57 | 220 | 2.0 | 7.0 | 0.00 | 0.13 | 0.06 | 78 | 998.6 |
| 20260904125003 | 57 | 209 | 3.0 | 7.0 | 0.00 | 0.13 | 0.06 | 78 | 998.7 |
| 20260904124503 | 56 | 207 | 4.0 | 7.0 | 0.00 | 0.13 | 0.06 | 76 | 998.7 |
| 20260904124213 | 56 | 202 | 4.0 | 6.0 | 0.00 | 0.13 | 0.06 | 77 | 998.9 |
| 20260904123503 | 56 | 201 | 3.0 | 6.0 | 0.00 | 0.13 | 0.06 | 79 | 999.0 |
| 20260904123003 | 56 | 195 | 3.0 | 9.0 | 0.00 | 0.13 | 0.06 | 81 | 999.1 |
| 20260904122714 | 56 | 193 | 3.0 | 10.0 | 0.00 | 0.13 | 0.06 | 84 | 999.0 |
| 20260904122003 | 56 | 200 | 4.0 | 12.0 | 0.00 | 0.13 | 0.06 | 85 | 999.1 |
| 20260904121503 | 56 | 188 | 4.0 | 12.0 | 0.00 | 0.13 | 0.06 | 87 | 999.2 |
| 20260904121212 | 56 | 191 | 5.0 | 13.0 | 0.00 | 0.13 | 0.06 | 87 | 999.2 |
| 20260904120503 | 56 | 193 | 5.0 | 13.0 | 0.00 | 0.13 | 0.06 | 86 | 999.3 |
| 20260904120214 | 56 | 190 | 5.0 | 13.0 | 0.00 | 0.13 | 0.06 | 86 | 999.2 |
| 20260904115503 | 56 | 182 | 5.0 | 10.0 | 0.00 | 0.13 | 0.06 | 87 | 999.3 |
| 20260904115004 | 57 | 184 | 5.0 | 9.0 | 0.00 | 0.13 | 0.06 | 85 | 999.2 |
| 20260904114503 | 57 | 201 | 3.0 | 8.0 | 0.00 | 0.13 | 0.06 | 85 | 999.3 |
| 20260904114003 | 58 | 207 | 3.0 | 7.0 | 0.00 | 0.13 | 0.06 | 84 | 999.3 |
| 20260904113713 | 57 | 209 | 3.0 | 7.0 | 0.00 | 0.13 | 0.06 | 82 | 999.3 |
| 20260904113003 | 58 | 229 | 3.0 | 8.0 | 0.00 | 0.13 | 0.06 | 82 | 999.4 |
| 20260904112503 | 57 | 227 | 3.0 | 9.0 | 0.00 | 0.13 | 0.06 | 81 | 999.4 |
| 20260904112003 | 57 | 215 | 4.0 | 9.0 | 0.00 | 0.13 | 0.06 | 81 | 999.3 |
| 20260904111504 | 58 | 214 | 3.0 | 11.0 | 0.00 | 0.13 | 0.06 | 81 | 999.5 |
| 20260904110503 | 58 | 213 | 4.0 | 9.0 | 0.00 | 0.13 | 0.06 | 81 | 999.4 |
| 20260904110003 | 57 | 213 | 4.0 | 9.0 | 0.00 | 0.13 | 0.06 | 82 | 999.6 |
| 20260904105713 | 57 | 208 | 5.0 | 9.0 | 0.00 | 0.13 | 0.06 | 83 | 999.6 |
| 20260904105004 | 57 | 217 | 3.0 | 6.0 | 0.00 | 0.13 | 0.06 | 85 | 999.9 |
| 20260904104503 | 58 | 232 | 2.0 | 7.0 | 0.00 | 0.13 | 0.06 | 83 | 999.7 |
| 20260904104003 | 58 | 238 | 2.0 | 9.0 | 0.00 | 0.13 | 0.06 | 83 | 1000.0 |
| 20260904103713 | 57 | 235 | 2.0 | 9.0 | 0.00 | 0.13 | 0.06 | 84 | 999.9 |
| 20260904103003 | 57 | 222 | 3.0 | 9.0 | 0.00 | 0.13 | 0.06 | 84 | 1000.1 |
| 20260904102503 | 57 | 203 | 4.0 | 10.0 | 0.00 | 0.13 | 0.06 | 86 | 999.8 |
| 20260904102003 | 57 | 210 | 4.0 | 10.0 | 0.00 | 0.13 | 0.06 | 86 | 999.8 |
| 20260904101715 | 57 | 205 | 4.0 | 10.0 | 0.00 | 0.13 | 0.06 | 86 | 999.9 |
| 20260904101003 | 57 | 199 | 4.0 | 10.0 | 0.00 | 0.13 | 0.06 | 86 | 999.9 |
| 20260904100503 | 57 | 215 | 3.0 | 9.0 | 0.00 | 0.13 | 0.06 | 87 | 999.9 |
| 20260904100003 | 57 | 219 | 4.0 | 14.0 | 0.00 | 0.13 | 0.06 | 87 | 999.9 |
| 20260904095503 | 57 | 207 | 5.0 | 14.0 | 0.00 | 0.13 | 0.06 | 87 | 1000.1 |
| 20260904095003 | 58 | 211 | 5.0 | 13.0 | 0.00 | 0.13 | 0.06 | 87 | 1000.1 |
| 20260904094503 | 57 | 218 | 4.0 | 13.0 | 0.00 | 0.13 | 0.06 | 87 | 1000.2 |
| 20260904094003 | 57 | 213 | 4.0 | 9.0 | 0.00 | 0.13 | 0.06 | 88 | 1000.3 |
| 20260904093712 | 57 | 200 | 4.0 | 9.0 | 0.00 | 0.13 | 0.06 | 89 | 1000.2 |
| 20260904093004 | 57 | 216 | 3.0 | 12.0 | 0.00 | 0.13 | 0.06 | 89 | 1000.2 |
| 20260904092503 | 57 | 219 | 3.0 | 12.0 | 0.00 | 0.13 | 0.06 | 89 | 1000.2 |
| 20260904092213 | 56 | 212 | 3.0 | 12.0 | 0.00 | 0.13 | 0.06 | 89 | 1000.3 |
| 20260904091503 | 56 | 210 | 3.0 | 11.0 | 0.00 | 0.13 | 0.06 | 91 | 1000.3 |
| 20260904091003 | 56 | 207 | 4.0 | 11.0 | 0.00 | 0.13 | 0.06 | 92 | 1000.6 |
| 20260904090714 | 56 | 212 | 3.0 | 11.0 | 0.00 | 0.13 | 0.06 | 92 | 1000.4 |
| 20260904090003 | 56 | 234 | 2.0 | 9.0 | 0.00 | 0.13 | 0.06 | 92 | 1000.4 |
| 20260904085714 | 56 | 229 | 3.0 | 9.0 | 0.00 | 0.13 | 0.06 | 93 | 1000.4 |
| 20260904085213 | 56 | 221 | 3.0 | 9.0 | 0.01 | 0.13 | 0.06 | 92 | 1000.6 |
| 20260904084503 | 56 | 201 | 3.0 | 9.0 | 0.01 | 0.13 | 0.06 | 93 | 1000.4 |
| 20260904084003 | 56 | 189 | 3.0 | 9.0 | 0.01 | 0.13 | 0.06 | 93 | 1000.6 |
| 20260904083503 | 56 | 217 | 2.0 | 6.0 | 0.02 | 0.13 | 0.06 | 94 | 1000.4 |
| 20260904083004 | 56 | 218 | 3.0 | 7.0 | 0.02 | 0.13 | 0.06 | 95 | 1000.7 |
| 20260904082503 | 55 | 208 | 3.0 | 9.0 | 0.02 | 0.13 | 0.06 | 95 | 1000.4 |
| 20260904082003 | 55 | 216 | 3.0 | 10.0 | 0.02 | 0.13 | 0.06 | 94 | 1000.6 |
| 20260904081503 | 55 | 219 | 4.0 | 10.0 | 0.03 | 0.13 | 0.06 | 94 | 1000.7 |
| 20260904081213 | 55 | 205 | 4.0 | 13.0 | 0.03 | 0.13 | 0.06 | 94 | 1000.7 |
| 20260904080503 | 55 | 213 | 4.0 | 13.0 | 0.03 | 0.13 | 0.06 | 95 | 1000.8 |
| 20260904080213 | 55 | 211 | 4.0 | 10.0 | 0.03 | 0.13 | 0.06 | 95 | 1000.4 |
| 20260904075503 | 56 | 200 | 5.0 | 10.0 | 0.02 | 0.13 | 0.05 | 95 | 1000.8 |
| 20260904075213 | 55 | 203 | 5.0 | 10.0 | 0.02 | 0.13 | 0.05 | 95 | 1000.7 |
| 20260904074504 | 55 | 213 | 4.0 | 13.0 | 0.02 | 0.12 | 0.05 | 95 | 1000.9 |
| 20260904074215 | 55 | 213 | 4.0 | 13.0 | 0.02 | 0.12 | 0.05 | 96 | 1000.8 |
| 20260904073503 | 54 | 226 | 4.0 | 13.0 | 0.01 | 0.12 | 0.04 | 97 | 1000.9 |
| 20260904073003 | 54 | 237 | 4.0 | 11.0 | 0.01 | 0.11 | 0.04 | 98 | 1000.8 |
| 20260904072504 | 54 | 196 | 4.0 | 11.0 | 0.01 | 0.11 | 0.04 | 98 | 1000.8 |
| 20260904072004 | 54 | 177 | 3.0 | 11.0 | 0.01 | 0.11 | 0.04 | 98 | 1000.8 |
| 20260904071714 | 54 | 186 | 3.0 | 8.0 | 0.01 | 0.11 | 0.04 | 98 | 1001.0 |
| 20260904071213 | 54 | 191 | 4.0 | 10.0 | 0.00 | 0.11 | 0.04 | 98 | 1001.1 |
| 20260904070714 | 54 | 193 | 5.0 | 10.0 | 0.00 | 0.10 | 0.03 | 98 | 1001.1 |
| 20260904070004 | 54 | 210 | 5.0 | 14.0 | 0.00 | 0.10 | 0.03 | 98 | 1001.1 |
| 20260904065713 | 54 | 209 | 5.0 | 14.0 | 0.00 | 0.10 | 0.03 | 98 | 1001.1 |
| 20260904065212 | 54 | 198 | 4.0 | 11.0 | 0.00 | 0.10 | 0.03 | 98 | 1001.2 |
| 20260904064713 | 54 | 202 | 4.0 | 12.0 | 0.00 | 0.10 | 0.03 | 98 | 1001.2 |
| 20260904064003 | 54 | 200 | 4.0 | 12.0 | 0.00 | 0.10 | 0.03 | 98 | 1001.4 |
| 20260904063504 | 54 | 204 | 4.0 | 9.0 | 0.00 | 0.10 | 0.03 | 99 | 1001.6 |
| 20260904063003 | 54 | 205 | 4.0 | 9.0 | 0.00 | 0.10 | 0.03 | 99 | 1001.4 |
| 20260904062503 | 54 | 202 | 4.0 | 9.0 | 0.00 | 0.10 | 0.03 | 99 | 1001.3 |
| 20260904062003 | 54 | 191 | 3.0 | 15.0 | 0.00 | 0.10 | 0.03 | 99 | 1001.3 |
| 20260904061713 | 54 | 194 | 3.0 | 15.0 | 0.00 | 0.10 | 0.03 | 99 | 1001.2 |
| 20260904061003 | 54 | 213 | 3.0 | 15.0 | 0.00 | 0.10 | 0.03 | 99 | 1001.5 |
| 20260904060504 | 54 | 200 | 3.0 | 13.0 | 0.00 | 0.10 | 0.03 | 99 | 1001.5 |
| 20260904060214 | 54 | 184 | 3.0 | 9.0 | 0.00 | 0.10 | 0.03 | 99 | 1001.4 |
| 20260904055503 | 54 | 186 | 3.0 | 7.0 | 0.01 | 0.10 | 0.03 | 99 | 1001.6 |
| 20260904055214 | 54 | 204 | 4.0 | 10.0 | 0.01 | 0.10 | 0.03 | 99 | 1001.4 |
| 20260904054503 | 54 | 236 | 3.0 | 10.0 | 0.01 | 0.10 | 0.03 | 99 | 1001.5 |
| 20260904054003 | 53 | 204 | 3.0 | 10.0 | 0.01 | 0.10 | 0.03 | 99 | 1001.6 |
| 20260904053503 | 54 | 194 | 4.0 | 10.0 | 0.02 | 0.10 | 0.03 | 99 | 1001.5 |
| 20260904053003 | 54 | 205 | 4.0 | 9.0 | 0.02 | 0.10 | 0.03 | 99 | 1001.6 |
| 20260904052503 | 54 | 201 | 4.0 | 7.0 | 0.02 | 0.10 | 0.03 | 99 | 1001.6 |
| 20260904052214 | 54 | 212 | 3.0 | 6.0 | 0.02 | 0.10 | 0.03 | 99 | 1001.6 |
| 20260904051503 | 54 | 212 | 3.0 | 9.0 | 0.01 | 0.10 | 0.03 | 99 | 1001.8 |
| 20260904051003 | 54 | 201 | 3.0 | 9.0 | 0.01 | 0.10 | 0.03 | 99 | 1001.6 |
| 20260904050503 | 54 | 184 | 4.0 | 9.0 | 0.01 | 0.10 | 0.03 | 99 | 1001.7 |
| 20260904050004 | 54 | 191 | 3.0 | 10.0 | 0.01 | 0.10 | 0.03 | 99 | 1001.6 |
| 20260904045503 | 54 | 199 | 4.0 | 10.0 | 0.01 | 0.09 | 0.02 | 99 | 1001.7 |
| 20260904045214 | 54 | 205 | 4.0 | 10.0 | 0.01 | 0.09 | 0.02 | 99 | 1001.7 |
| 20260904044503 | 54 | 205 | 4.0 | 8.0 | 0.00 | 0.09 | 0.02 | 99 | 1001.8 |
| 20260904044003 | 54 | 209 | 4.0 | 10.0 | 0.00 | 0.09 | 0.02 | 99 | 1001.5 |
| 20260904043503 | 54 | 213 | 4.0 | 10.0 | 0.00 | 0.09 | 0.01 | 99 | 1001.7 |
| 20260904043003 | 54 | 206 | 4.0 | 7.0 | 0.00 | 0.09 | 0.01 | 99 | 1001.8 |
| 20260904042715 | 54 | 201 | 3.0 | 7.0 | 0.00 | 0.09 | 0.01 | 99 | 1001.7 |
| 20260904042003 | 54 | 204 | 4.0 | 9.0 | 0.00 | 0.09 | 0.01 | 99 | 1001.8 |
| 20260904041714 | 54 | 203 | 4.0 | 9.0 | 0.00 | 0.09 | 0.01 | 99 | 1001.7 |
| 20260904041003 | 54 | 197 | 3.0 | 8.0 | 0.00 | 0.09 | 0.01 | 99 | 1001.7 |
| 20260904040503 | 54 | 209 | 3.0 | 9.0 | 0.00 | 0.09 | 0.01 | 99 | 1001.7 |
| 20260904040213 | 54 | 213 | 3.0 | 9.0 | 0.00 | 0.09 | 0.01 | 99 | 1001.7 |
| 20260904035503 | 54 | 225 | 3.0 | 9.0 | 0.00 | 0.09 | 0.01 | 99 | 1001.6 |
| 20260904035214 | 54 | 213 | 3.0 | 10.0 | 0.00 | 0.09 | 0.01 | 99 | 1001.8 |
| 20260904034503 | 54 | 194 | 5.0 | 10.0 | 0.00 | 0.09 | 0.01 | 99 | 1002.0 |
| 20260904034003 | 54 | 200 | 5.0 | 10.0 | 0.00 | 0.09 | 0.01 | 99 | 1002.0 |
| 20260904033714 | 54 | 196 | 4.0 | 10.0 | 0.00 | 0.09 | 0.01 | 99 | 1002.1 |
| 20260904033003 | 54 | 198 | 3.0 | 8.0 | 0.00 | 0.09 | 0.01 | 99 | 1002.0 |
| 20260904032504 | 54 | 208 | 3.0 | 7.0 | 0.00 | 0.09 | 0.01 | 99 | 1002.0 |
| 20260904032003 | 54 | 207 | 4.0 | 7.0 | 0.00 | 0.09 | 0.01 | 99 | 1002.3 |
| 20260904031503 | 54 | 205 | 3.0 | 7.0 | 0.00 | 0.09 | 0.01 | 99 | 1002.1 |
| 20260904031003 | 54 | 212 | 2.0 | 7.0 | 0.00 | 0.09 | 0.01 | 99 | 1002.0 |
| 20260904030503 | 54 | 200 | 3.0 | 9.0 | 0.00 | 0.09 | 0.01 | 99 | 1002.2 |
| 20260904030213 | 54 | 197 | 3.0 | 9.0 | 0.00 | 0.09 | 0.01 | 99 | 1002.3 |
| 20260904025714 | 54 | 207 | 3.0 | 9.0 | 0.00 | 0.09 | 0.01 | 99 | 1002.3 |
| 20260904025003 | 54 | 223 | 3.0 | 9.0 | 0.00 | 0.09 | 0.01 | 99 | 1002.2 |
| 20260904024714 | 54 | 213 | 3.0 | 9.0 | 0.00 | 0.09 | 0.01 | 99 | 1002.3 |
| 20260904024003 | 54 | 208 | 3.0 | 8.0 | 0.00 | 0.09 | 0.01 | 99 | 1002.4 |
| 20260904023503 | 54 | 230 | 3.0 | 8.0 | 0.00 | 0.09 | 0.01 | 99 | 1002.6 |
| 20260904023004 | 55 | 232 | 3.0 | 8.0 | 0.00 | 0.09 | 0.01 | 99 | 1002.4 |
| 20260904022503 | 55 | 213 | 3.0 | 8.0 | 0.00 | 0.09 | 0.01 | 99 | 1002.6 |
| 20260904022213 | 55 | 203 | 3.0 | 8.0 | 0.00 | 0.09 | 0.01 | 99 | 1002.5 |
| 20260904021503 | 55 | 209 | 4.0 | 8.0 | 0.00 | 0.09 | 0.01 | 99 | 1002.4 |
| 20260904021215 | 55 | 214 | 4.0 | 8.0 | 0.00 | 0.09 | 0.01 | 99 | 1002.4 |
| 20260904020714 | 55 | 224 | 3.0 | 7.0 | 0.00 | 0.09 | 0.01 | 99 | 1002.5 |
| 20260904020213 | 55 | 225 | 3.0 | 8.0 | 0.00 | 0.09 | 0.01 | 99 | 1002.4 |
| 20260904015503 | 55 | 220 | 2.0 | 8.0 | 0.00 | 0.09 | 0.01 | 99 | 1002.4 |
| 20260904015003 | 55 | 205 | 1.0 | 8.0 | 0.00 | 0.09 | 0.01 | 99 | 1002.6 |
| 20260904014503 | 55 | 235 | 2.0 | 6.0 | 0.00 | 0.09 | 0.01 | 99 | 1002.3 |
| 20260904014003 | 55 | 237 | 1.0 | 6.0 | 0.00 | 0.09 | 0.01 | 99 | 1002.3 |
| 20260904013503 | 55 | 222 | 2.0 | 6.0 | 0.00 | 0.09 | 0.01 | 99 | 1002.3 |
| 20260904013214 | 55 | 211 | 2.0 | 7.0 | 0.00 | 0.09 | 0.01 | 99 | 1002.3 |
| 20260904012503 | 55 | 218 | 3.0 | 10.0 | 0.00 | 0.09 | 0.01 | 99 | 1002.4 |
| 20260904012003 | 55 | 229 | 3.0 | 10.0 | 0.00 | 0.09 | 0.01 | 99 | 1002.4 |
| 20260904011503 | 56 | 233 | 3.0 | 10.0 | 0.00 | 0.09 | 0.01 | 99 | 1002.7 |
| 20260904011003 | 56 | 247 | 3.0 | 10.0 | 0.00 | 0.09 | 0.01 | 99 | 1002.7 |
| 20260904010503 | 56 | 226 | 2.0 | 8.0 | 0.00 | 0.09 | 0.01 | 99 | 1002.7 |
| 20260904010214 | 56 | 226 | 2.0 | 8.0 | 0.00 | 0.09 | 0.01 | 99 | 1002.7 |
| 20260904005713 | 56 | 200 | 3.0 | 8.0 | 0.00 | 0.09 | 0.01 | 99 | 1002.9 |
| 20260904005003 | 56 | 219 | 3.0 | 6.0 | 0.00 | 0.09 | 0.01 | 99 | 1002.7 |
| 20260904004503 | 56 | 230 | 2.0 | 4.0 | 0.00 | 0.09 | 0.01 | 99 | 1002.9 |
| 20260904004004 | 56 | 224 | 2.0 | 4.0 | 0.01 | 0.09 | 0.01 | 99 | 1002.9 |
| 20260904003503 | 56 | 221 | 2.0 | 5.0 | 0.01 | 0.09 | 0.01 | 99 | 1002.8 |
| 20260904003003 | 56 | 202 | 2.0 | 8.0 | 0.01 | 0.09 | 0.01 | 99 | 1002.8 |
| 20260904002503 | 56 | 183 | 3.0 | 8.0 | 0.01 | 0.09 | 0.01 | 99 | 1002.8 |
| 20260904002214 | 56 | 185 | 3.0 | 8.0 | 0.01 | 0.09 | 0.01 | 99 | 1002.7 |
| 20260904001503 | 55 | 190 | 2.0 | 5.0 | 0.01 | 0.09 | 0.01 | 99 | 1002.8 |
| 20260904001004 | 55 | 177 | 2.0 | 5.0 | 0.01 | 0.09 | 0.01 | 99 | 1002.7 |
| 20260904000503 | 55 | 164 | 2.0 | 4.0 | 0.01 | 0.09 | 0.01 | 99 | 1003.1 |
| 20260904000003 | 55 | 155 | 1.0 | 3.0 | 0.01 | 0.09 | 0.01 | 99 | 1002.8 |
| 20260903235503 | 55 | 144 | 1.0 | 3.0 | 0.01 | 0.09 | 0.01 | 99 | 1002.9 |
| 20260903235214 | 55 | 141 | 2.0 | 3.0 | 0.01 | 0.09 | 0.01 | 99 | 1003.0 |
| 20260903234503 | 55 | 149 | 2.0 | 3.0 | 0.01 | 0.09 | 0.01 | 99 | 1002.9 |
| 20260903234003 | 55 | 156 | 1.0 | 3.0 | 0.00 | 0.07 | 0.00 | 99 | 1003.2 |
| 20260903233503 | 55 | 150 | 1.0 | 3.0 | 0.00 | 0.07 | 0.00 | 99 | 1003.2 |
| 20260903233214 | 55 | 148 | 2.0 | 3.0 | 0.00 | 0.07 | 0.00 | 99 | 1003.3 |
| 20260903232713 | 55 | 146 | 1.0 | 4.0 | 0.00 | 0.07 | 0.00 | 99 | 1003.1 |
| 20260903232003 | 55 | 152 | 1.0 | 4.0 | 0.00 | 0.07 | 0.00 | 99 | 1003.1 |
| 20260903231503 | 55 | 143 | 2.0 | 4.0 | 0.00 | 0.07 | 0.00 | 99 | 1003.0 |
| 20260903231214 | 55 | 139 | 2.0 | 4.0 | 0.00 | 0.07 | 0.00 | 99 | 1003.2 |
| 20260903230713 | 55 | 139 | 2.0 | 4.0 | 0.00 | 0.07 | 0.00 | 99 | 1003.2 |
| 20260903230003 | 55 | 145 | 2.0 | 4.0 | 0.00 | 0.07 | 0.00 | 99 | 1003.4 |
| 20260903225503 | 55 | 135 | 2.0 | 4.0 | 0.00 | 0.07 | 0.00 | 99 | 1003.6 |
| 20260903225003 | 55 | 131 | 1.0 | 3.0 | 0.00 | 0.07 | 0.00 | 99 | 1003.2 |
| 20260903224503 | 55 | 103 | 1.0 | 3.0 | 0.00 | 0.07 | 0.00 | 99 | 1003.4 |
| 20260903224003 | 55 | 99 | 1.0 | 3.0 | 0.00 | 0.07 | 0.00 | 99 | 1003.6 |
| 20260903223503 | 55 | 114 | 1.0 | 3.0 | 0.00 | 0.07 | 0.00 | 99 | 1003.5 |
| 20260903223004 | 55 | 122 | 1.0 | 3.0 | 0.00 | 0.07 | 0.00 | 99 | 1003.6 |
| 20260903222503 | 55 | 140 | 1.0 | 3.0 | 0.00 | 0.07 | 0.00 | 99 | 1003.5 |
| 20260903222004 | 55 | 156 | 1.0 | 3.0 | 0.00 | 0.07 | 0.00 | 99 | 1003.7 |
| 20260903221714 | 55 | 166 | 1.0 | 2.0 | 0.00 | 0.07 | 0.00 | 99 | 1003.8 |
| 20260903221003 | 55 | 146 | 0.0 | 2.0 | 0.00 | 0.07 | 0.00 | 99 | 1003.7 |
| 20260903220714 | 55 | 146 | 0.0 | 2.0 | 0.00 | 0.07 | 0.00 | 99 | 1003.8 |
| 20260903220213 | 55 | 166 | 0.0 | 2.0 | 0.00 | 0.07 | 0.00 | 99 | 1003.7 |
| 20260903215503 | 56 | 10 | 0.0 | 2.0 | 0.00 | 0.07 | 0.07 | 99 | 1003.9 |
| 20260903215003 | 55 | 16 | 0.0 | 2.0 | 0.00 | 0.07 | 0.07 | 99 | 1003.5 |
| 20260903214503 | 55 | 14 | 1.0 | 2.0 | 0.00 | 0.07 | 0.07 | 99 | 1003.8 |
| 20260903214003 | 55 | 9 | 1.0 | 2.0 | 0.00 | 0.07 | 0.07 | 99 | 1003.7 |
| 20260903213503 | 55 | 10 | 1.0 | 2.0 | 0.00 | 0.07 | 0.07 | 99 | 1003.8 |
| 20260903213213 | 55 | 3 | 1.0 | 2.0 | 0.00 | 0.07 | 0.07 | 99 | 1003.8 |
| 20260903212504 | 56 | 12 | 0.0 | 2.0 | 0.00 | 0.07 | 0.07 | 99 | 1004.0 |
| 20260903212003 | 56 | 9 | 0.0 | 2.0 | 0.00 | 0.07 | 0.07 | 99 | 1004.0 |
| 20260903211714 | 56 | 18 | 0.0 | 2.0 | 0.00 | 0.07 | 0.07 | 99 | 1003.9 |
| 20260903211215 | 56 | 29 | 0.0 | 1.0 | 0.00 | 0.07 | 0.07 | 99 | 1004.0 |
| 20260903210503 | 56 | 0 | 0.0 | 0.0 | 0.00 | 0.07 | 0.07 | 99 | 1004.2 |
| 20260903210213 | 56 | 0 | 0.0 | 0.0 | 0.00 | 0.07 | 0.07 | 99 | 1004.1 |
| 20260903205714 | 56 | 212 | 0.0 | 1.0 | 0.00 | 0.07 | 0.07 | 99 | 1004.4 |
| 20260903205004 | 56 | 222 | 0.0 | 1.0 | 0.00 | 0.07 | 0.07 | 99 | 1004.2 |
| 20260903204503 | 56 | 232 | 0.0 | 2.0 | 0.00 | 0.07 | 0.07 | 99 | 1004.5 |
| 20260903204213 | 56 | 156 | 0.0 | 2.0 | 0.00 | 0.07 | 0.07 | 99 | 1004.2 |
| 20260903203714 | 56 | 151 | 0.0 | 2.0 | 0.00 | 0.07 | 0.07 | 99 | 1004.3 |
| 20260903203004 | 56 | 0 | 0.0 | 0.0 | 0.00 | 0.07 | 0.07 | 99 | 1004.2 |
| 20260903202504 | 56 | 15 | 0.0 | 2.0 | 0.00 | 0.07 | 0.07 | 99 | 1004.2 |
| 20260903202004 | 56 | 12 | 0.0 | 2.0 | 0.00 | 0.07 | 0.07 | 99 | 1004.3 |
| 20260903201503 | 56 | 4 | 0.0 | 2.0 | 0.00 | 0.07 | 0.07 | 99 | 1004.1 |
| 20260903201212 | 56 | 3 | 0.0 | 2.0 | 0.00 | 0.07 | 0.07 | 99 | 1004.3 |
| 20260903200503 | 56 | 322 | 0.0 | 2.0 | 0.00 | 0.07 | 0.07 | 99 | 1004.4 |
| 20260903200214 | 56 | 280 | 0.0 | 2.0 | 0.00 | 0.07 | 0.07 | 99 | 1004.5 |
| 20260903195503 | 56 | 259 | 0.0 | 2.0 | 0.00 | 0.07 | 0.07 | 99 | 1004.5 |
| 20260903195003 | 56 | 256 | 0.0 | 2.0 | 0.00 | 0.07 | 0.07 | 99 | 1004.6 |
| 20260903194503 | 56 | 291 | 0.0 | 2.0 | 0.00 | 0.07 | 0.07 | 99 | 1004.6 |
| 20260903194003 | 56 | 304 | 0.0 | 2.0 | 0.00 | 0.07 | 0.07 | 99 | 1004.4 |
| 20260903193503 | 56 | 200 | 0.0 | 1.0 | 0.00 | 0.07 | 0.07 | 99 | 1004.7 |
| 20260903193003 | 56 | 267 | 0.0 | 2.0 | 0.00 | 0.07 | 0.07 | 99 | 1004.6 |
| 20260903192503 | 56 | 285 | 1.0 | 2.0 | 0.00 | 0.07 | 0.07 | 99 | 1004.6 |
| 20260903192003 | 56 | 301 | 1.0 | 2.0 | 0.00 | 0.07 | 0.07 | 99 | 1004.7 |
| 20260903191504 | 56 | 314 | 1.0 | 2.0 | 0.00 | 0.07 | 0.07 | 99 | 1004.5 |
| 20260903191003 | 56 | 266 | 1.0 | 2.0 | 0.00 | 0.07 | 0.07 | 99 | 1004.7 |
| 20260903190503 | 56 | 308 | 1.0 | 2.0 | 0.00 | 0.07 | 0.07 | 99 | 1004.9 |
| 20260903190003 | 56 | 3 | 1.0 | 2.0 | 0.00 | 0.07 | 0.07 | 98 | 1004.8 |
| 20260903185504 | 56 | 345 | 0.0 | 2.0 | 0.00 | 0.07 | 0.07 | 98 | 1004.9 |
| 20260903185214 | 56 | 280 | 0.0 | 1.0 | 0.00 | 0.07 | 0.07 | 98 | 1004.7 |
| 20260903184504 | 56 | 223 | 0.0 | 1.0 | 0.00 | 0.07 | 0.07 | 98 | 1004.7 |
| 20260903184003 | 56 | 217 | 0.0 | 1.0 | 0.00 | 0.07 | 0.07 | 98 | 1004.9 |
| 20260903183503 | 56 | 352 | 0.0 | 1.0 | 0.00 | 0.07 | 0.07 | 98 | 1004.9 |
| 20260903183003 | 56 | 358 | 0.0 | 2.0 | 0.00 | 0.07 | 0.07 | 98 | 1004.8 |
| 20260903182713 | 56 | 357 | 0.0 | 2.0 | 0.00 | 0.07 | 0.07 | 98 | 1004.8 |
| 20260903182003 | 56 | 351 | 0.0 | 1.0 | 0.00 | 0.07 | 0.07 | 98 | 1004.8 |
| 20260903181504 | 56 | 44 | 0.0 | 1.0 | 0.00 | 0.07 | 0.07 | 98 | 1004.9 |
| 20260903181004 | 56 | 19 | 0.0 | 1.0 | 0.00 | 0.07 | 0.07 | 98 | 1004.9 |
| 20260903180503 | 56 | 22 | 0.0 | 1.0 | 0.00 | 0.07 | 0.07 | 98 | 1005.0 |
| 20260903180214 | 56 | 343 | 0.0 | 2.0 | 0.00 | 0.07 | 0.07 | 98 | 1004.9 |
| 20260903175503 | 56 | 324 | 0.0 | 2.0 | 0.00 | 0.07 | 0.07 | 98 | 1004.9 |
| 20260903175214 | 56 | 358 | 0.0 | 2.0 | 0.00 | 0.07 | 0.07 | 98 | 1004.9 |
| 20260903174715 | 56 | 5 | 1.0 | 2.0 | 0.00 | 0.07 | 0.07 | 98 | 1004.8 |
| 20260903174003 | 56 | 6 | 1.0 | 2.0 | 0.00 | 0.07 | 0.07 | 98 | 1004.8 |
| 20260903173503 | 57 | 11 | 1.0 | 2.0 | 0.01 | 0.07 | 0.07 | 98 | 1004.9 |
| 20260903173003 | 57 | 35 | 1.0 | 2.0 | 0.02 | 0.07 | 0.07 | 97 | 1005.0 |
| 20260903172503 | 57 | 97 | 0.0 | 1.0 | 0.04 | 0.07 | 0.07 | 97 | 1005.1 |
| 20260903172003 | 57 | 39 | 0.0 | 1.0 | 0.04 | 0.07 | 0.07 | 97 | 1005.2 |
| 20260903171503 | 57 | 50 | 0.0 | 2.0 | 0.04 | 0.07 | 0.07 | 97 | 1005.1 |
| 20260903171004 | 57 | 102 | 1.0 | 2.0 | 0.04 | 0.07 | 0.07 | 97 | 1005.4 |
| 20260903170503 | 57 | 123 | 1.0 | 2.0 | 0.05 | 0.07 | 0.07 | 97 | 1005.3 |
| 20260903170213 | 57 | 131 | 1.0 | 2.0 | 0.05 | 0.07 | 0.07 | 97 | 1005.6 |
| 20260903165503 | 57 | 129 | 0.0 | 2.0 | 0.05 | 0.07 | 0.07 | 97 | 1005.4 |
| 20260903165003 | 57 | 127 | 0.0 | 2.0 | 0.05 | 0.07 | 0.07 | 96 | 1005.3 |
| 20260903164714 | 57 | 125 | 0.0 | 2.0 | 0.06 | 0.07 | 0.07 | 96 | 1005.6 |
| 20260903164213 | 57 | 121 | 0.0 | 2.0 | 0.06 | 0.07 | 0.07 | 96 | 1005.4 |
| 20260903163503 | 57 | 134 | 1.0 | 3.0 | 0.05 | 0.06 | 0.06 | 96 | 1005.3 |
| 20260903163003 | 57 | 122 | 1.0 | 3.0 | 0.04 | 0.05 | 0.05 | 96 | 1005.6 |
| 20260903162714 | 57 | 120 | 1.0 | 3.0 | 0.03 | 0.04 | 0.04 | 96 | 1005.8 |